Time,TemperatureF,DewpointF,PressureIn,WindDirection,WindDirectionDegrees,WindSpeedMPH,WindSpeedGustMPH,Humidity,HourlyPrecipIn,Conditions,Clouds,dailyrainin,SoftwareType,DateUTC
2013-08-20 00:01:00,70.8,67.1,29.89,SE,146,4.6,4.6,88,0.00,CLR,SKC,0.00,WeatherDisplay:10.37,2013-08-20 05:01:00,
2013-08-20 00:06:00,70.7,67.0,29.89,SE,144,3.5,3.5,88,0.00,CLR,SKC,0.00,WeatherDisplay:10.37,2013-08-20 05:06:00,
2013-08-20 00:11:00,70.6,67.2,29.89,SE,143,5.8,5.8,89,0.00,CLR,SKC,0.00,WeatherDisplay:10.37,2013-08-20 05:11:00,
2013-08-20 00:16:00,70.5,67.1,29.89,SSE,148,3.5,3.5,89,0.00,CLR,SKC,0.00,WeatherDisplay:10.37,2013-08-20 05:16:00,
2013-08-20 00:21:00,70.3,66.9,29.89,SE,135,4.6,4.6,89,0.00,CLR,SKC,0.00,WeatherDisplay:10.37,2013-08-20 05:21:00,
2013-08-20 00:26:00,70.2,67.1,29.89,SE,137,5.8,5.8,90,0.00,CLR,SKC,0.00,WeatherDisplay:10.37,2013-08-20 05:26:00,
2013-08-20 00:31:00,70.1,67.0,29.89,SE,140,5.8,5.8,90,0.00,CLR,SKC,0.00,WeatherDisplay:10.37,2013-08-20 05:31:00,
2013-08-20 00:36:00,70.1,67.0,29.89,ESE,121,5.3,5.3,90,0.00,CLR,SKC,0.00,WeatherDisplay:10.37,2013-08-20 05:36:00,
2013-08-20 00:42:00,70.1,67.0,29.89,SE,136,4.6,4.6,90,0.00,CLR,SKC,0.00,WeatherDisplay:10.37,2013-08-20 05:42:00,
2013-08-20 00:47:00,70.2,67.1,29.89,SSE,152,4.2,4.2,90,0.00,CLR,SKC,0.00,WeatherDisplay:10.37,2013-08-20 05:47:00,
2013-08-20 00:52:00,70.2,67.1,29.89,SE,137,4.6,4.6,90,0.00,CLR,SKC,0.00,WeatherDisplay:10.37,2013-08-20 05:52:00,
2013-08-20 00:57:00,70.3,67.2,29.89,SSW,193,5.8,5.8,90,0.00,CLR,SKC,0.00,WeatherDisplay:10.37,2013-08-20 05:57:00,
2013-08-20 01:02:00,70.3,67.2,29.89,SE,141,4.6,4.6,90,0.00,CLR,SKC,0.00,WeatherDisplay:10.37,2013-08-20 06:02:00,
2013-08-20 01:07:00,70.3,66.9,29.89,SE,144,4.6,4.6,89,0.00,CLR,SKC,0.00,WeatherDisplay:10.37,2013-08-20 06:07:00,
2013-08-20 01:12:00,70.2,67.1,29.89,South,191,6.9,6.9,90,0.00,CLR,SKC,0.00,WeatherDisplay:10.37,2013-08-20 06:12:00,
2013-08-20 01:17:00,70.2,67.1,29.89,ESE,122,3.5,3.5,90,0.00,CLR,SKC,0.00,WeatherDisplay:10.37,2013-08-20 06:17:00,
2013-08-20 01:22:00,70.0,66.9,29.89,SSE,159,3.5,3.5,90,0.00,CLR,SKC,0.00,WeatherDisplay:10.37,2013-08-20 06:22:00,
2013-08-20 01:27:00,69.9,66.8,29.89,SSE,162,3.5,3.5,90,0.00,CLR,SKC,0.00,WeatherDisplay:10.37,2013-08-20 06:27:00,
2013-08-20 01:32:00,69.8,66.7,29.89,SSE,154,4.6,4.6,90,0.00,CLR,SKC,0.00,WeatherDisplay:10.37,2013-08-20 06:32:00,
2013-08-20 01:37:00,69.7,67.0,29.89,SE,139,4.6,4.6,91,0.00,CLR,SKC,0.00,WeatherDisplay:10.37,2013-08-20 06:37:00,
2013-08-20 01:42:00,69.7,67.0,29.89,SE,136,2.3,2.3,91,0.00,CLR,SKC,0.00,WeatherDisplay:10.37,2013-08-20 06:42:00,
2013-08-20 01:47:00,69.7,67.0,29.89,SE,139,3.5,3.5,91,0.00,CLR,SKC,0.00,WeatherDisplay:10.37,2013-08-20 06:47:00,
2013-08-20 01:52:00,69.7,67.0,29.89,SE,142,2.3,2.3,91,0.00,CLR,SKC,0.00,WeatherDisplay:10.37,2013-08-20 06:52:00,
2013-08-20 01:57:00,69.8,67.1,29.88,SE,126,4.6,4.6,91,0.00,CLR,SKC,0.00,WeatherDisplay:10.37,2013-08-20 06:57:00,
2013-08-20 02:02:00,69.8,67.1,29.88,SW,220,2.1,2.1,91,0.00,CLR,SKC,0.00,WeatherDisplay:10.37,2013-08-20 07:02:00,
2013-08-20 02:07:00,69.9,67.2,29.88,SE,144,3.5,3.5,91,0.00,CLR,SKC,0.00,WeatherDisplay:10.37,2013-08-20 07:07:00,
2013-08-20 02:12:00,70.0,66.9,29.88,SE,133,3.5,3.5,90,0.00,CLR,SKC,0.00,WeatherDisplay:10.37,2013-08-20 07:12:00,
2013-08-20 02:17:00,70.1,67.0,29.88,SE,141,2.3,2.3,90,0.00,CLR,SKC,0.00,WeatherDisplay:10.37,2013-08-20 07:17:00,
2013-08-20 02:22:00,70.1,67.0,29.88,SSE,165,3.2,3.2,90,0.00,CLR,SKC,0.00,WeatherDisplay:10.37,2013-08-20 07:22:00,
2013-08-20 02:27:00,70.1,67.0,29.88,SE,144,2.3,2.3,90,0.00,CLR,SKC,0.00,WeatherDisplay:10.37,2013-08-20 07:27:00,
2013-08-20 02:32:00,70.1,67.0,29.88,SSE,148,3.5,3.5,90,0.00,CLR,SKC,0.00,WeatherDisplay:10.37,2013-08-20 07:32:00,
2013-08-20 02:37:00,70.0,66.9,29.88,SSE,155,2.3,2.3,90,0.00,CLR,SKC,0.00,WeatherDisplay:10.37,2013-08-20 07:37:00,
2013-08-20 02:42:00,69.9,67.2,29.88,ESE,119,1.2,1.2,91,0.00,CLR,SKC,0.00,WeatherDisplay:10.37,2013-08-20 07:42:00,
2013-08-20 02:47:00,69.8,67.1,29.88,SE,144,3.5,3.5,91,0.00,CLR,SKC,0.00,WeatherDisplay:10.37,2013-08-20 07:47:00,
2013-08-20 02:52:00,69.8,67.1,29.88,SSW,199,3.5,3.5,91,0.00,CLR,SKC,0.00,WeatherDisplay:10.37,2013-08-20 07:52:00,
2013-08-20 02:57:00,69.8,67.1,29.88,SE,143,3.5,3.5,91,0.00,CLR,SKC,0.00,WeatherDisplay:10.37,2013-08-20 07:57:00,
2013-08-20 03:02:00,69.9,66.8,29.88,SE,135,2.1,2.1,90,0.00,CLR,SKC,0.00,WeatherDisplay:10.37,2013-08-20 08:02:00,
2013-08-20 03:07:00,69.9,66.8,29.88,SSE,148,1.2,1.2,90,0.00,CLR,SKC,0.00,WeatherDisplay:10.37,2013-08-20 08:07:00,
2013-08-20 03:12:00,69.8,66.7,29.88,ESE,118,1.2,1.2,90,0.00,CLR,SKC,0.00,WeatherDisplay:10.37,2013-08-20 08:12:00,
2013-08-20 03:17:00,69.7,67.0,29.88,SE,134,2.3,2.3,91,0.00,CLR,SKC,0.00,WeatherDisplay:10.37,2013-08-20 08:17:00,
2013-08-20 03:22:00,69.6,66.9,29.88,ESE,113,2.3,0.0,91,0.00,CLR,SKC,0.00,WeatherDisplay:10.37,2013-08-20 08:22:00,
2013-08-20 03:27:00,69.6,66.9,29.88,ESE,115,2.1,2.1,91,0.00,CLR,SKC,0.00,WeatherDisplay:10.37,2013-08-20 08:27:00,
2013-08-20 03:32:00,69.5,66.8,29.88,SE,124,1.2,0.0,91,0.00,CLR,SKC,0.00,WeatherDisplay:10.37,2013-08-20 08:32:00,
2013-08-20 03:37:00,69.4,66.7,29.88,SE,141,1.1,0.0,91,0.00,CLR,SKC,0.00,WeatherDisplay:10.37,2013-08-20 08:37:00,
2013-08-20 03:42:00,69.3,66.6,29.88,SE,134,1.2,1.2,91,0.00,CLR,SKC,0.00,WeatherDisplay:10.37,2013-08-20 08:42:00,
2013-08-20 03:47:00,69.3,66.6,29.88,SE,137,1.2,1.2,91,0.00,CLR,SKC,0.00,WeatherDisplay:10.37,2013-08-20 08:47:00,
2013-08-20 03:52:00,69.4,66.7,29.88,SE,134,2.3,2.3,91,0.00,CLR,SKC,0.00,WeatherDisplay:10.37,2013-08-20 08:52:00,
2013-08-20 03:57:00,69.4,66.7,29.88,SE,134,0.0,0.0,91,0.00,CLR,SKC,0.00,WeatherDisplay:10.37,2013-08-20 08:57:00,
2013-08-20 04:02:00,69.4,66.7,29.88,SE,141,0.0,0.0,91,0.00,CLR,SKC,0.00,WeatherDisplay:10.37,2013-08-20 09:02:00,
2013-08-20 04:07:00,69.3,66.6,29.88,SE,125,0.0,0.0,91,0.00,CLR,SKC,0.00,WeatherDisplay:10.37,2013-08-20 09:07:00,
2013-08-20 04:12:00,69.4,66.7,29.88,SE,130,0.0,0.0,91,0.00,CLR,SKC,0.00,WeatherDisplay:10.37,2013-08-20 09:12:00,
2013-08-20 04:17:00,69.4,66.7,29.88,SE,128,1.2,1.2,91,0.00,CLR,SKC,0.00,WeatherDisplay:10.37,2013-08-20 09:17:00,
2013-08-20 04:22:00,69.4,66.7,29.88,SE,126,1.2,1.2,91,0.00,CLR,SKC,0.00,WeatherDisplay:10.37,2013-08-20 09:22:00,
2013-08-20 04:27:00,69.4,66.7,29.88,SE,124,1.2,1.2,91,0.00,CLR,SKC,0.00,WeatherDisplay:10.37,2013-08-20 09:27:00,
2013-08-20 04:32:00,69.4,66.3,29.88,South,172,0.0,0.0,90,0.00,CLR,SKC,0.00,WeatherDisplay:10.37,2013-08-20 09:32:00,
2013-08-20 04:37:00,69.6,66.5,29.88,SSE,162,2.3,2.3,90,0.00,CLR,SKC,0.00,WeatherDisplay:10.37,2013-08-20 09:37:00,
2013-08-20 04:42:00,69.7,66.6,29.88,SSE,147,2.3,2.3,90,0.00,CLR,SKC,0.00,WeatherDisplay:10.37,2013-08-20 09:42:00,
2013-08-20 04:47:00,69.7,66.6,29.88,SE,143,2.1,2.1,90,0.00,CLR,SKC,0.00,WeatherDisplay:10.37,2013-08-20 09:47:00,
2013-08-20 04:52:00,69.7,66.6,29.88,SSE,164,1.2,0.0,90,0.00,CLR,SKC,0.00,WeatherDisplay:10.37,2013-08-20 09:52:00,
2013-08-20 04:57:00,69.5,66.4,29.88,SE,139,2.3,2.3,90,0.00,CLR,SKC,0.00,WeatherDisplay:10.37,2013-08-20 09:57:00,
2013-08-20 05:02:00,69.4,66.3,29.87,SSE,153,1.2,1.2,90,0.00,CLR,SKC,0.00,WeatherDisplay:10.37,2013-08-20 10:02:00,
2013-08-20 05:07:00,69.4,66.3,29.88,SE,134,1.2,1.2,90,0.00,CLR,SKC,0.00,WeatherDisplay:10.37,2013-08-20 10:07:00,
2013-08-20 05:12:00,69.4,66.3,29.88,SE,141,1.2,1.2,90,0.00,CLR,SKC,0.00,WeatherDisplay:10.37,2013-08-20 10:12:00,
2013-08-20 05:17:00,69.4,66.3,29.88,SSE,153,2.3,2.3,90,0.00,CLR,SKC,0.00,WeatherDisplay:10.37,2013-08-20 10:17:00,
2013-08-20 05:22:00,69.4,66.3,29.88,South,173,0.0,0.0,90,0.00,CLR,SKC,0.00,WeatherDisplay:10.37,2013-08-20 10:22:00,
2013-08-20 05:27:00,69.4,66.3,29.88,SE,141,0.0,0.0,90,0.00,CLR,SKC,0.00,WeatherDisplay:10.37,2013-08-20 10:27:00,
2013-08-20 05:32:00,69.3,66.2,29.88,SE,139,1.2,1.2,90,0.00,CLR,SKC,0.00,WeatherDisplay:10.37,2013-08-20 10:32:00,
2013-08-20 05:42:00,69.1,66.0,29.88,SE,127,1.2,1.2,90,0.00,CLR,SKC,0.00,WeatherDisplay:10.37,2013-08-20 10:42:00,
2013-08-20 05:47:00,68.9,66.2,29.88,SE,139,1.2,1.2,91,0.00,CLR,SKC,0.00,WeatherDisplay:10.37,2013-08-20 10:47:00,
2013-08-20 05:52:00,68.8,66.1,29.88,SE,146,1.2,1.2,91,0.00,CLR,SKC,0.00,WeatherDisplay:10.37,2013-08-20 10:52:00,
2013-08-20 05:57:00,68.7,66.0,29.88,SSE,148,0.0,0.0,91,0.00,CLR,SKC,0.00,WeatherDisplay:10.37,2013-08-20 10:57:00,
2013-08-20 06:02:00,68.6,65.9,29.88,SE,136,0.0,0.0,91,0.00,CLR,SKC,0.00,WeatherDisplay:10.37,2013-08-20 11:02:00,
2013-08-20 06:07:00,68.6,65.9,29.88,SE,141,1.2,0.0,91,0.00,CLR,SKC,0.00,WeatherDisplay:10.37,2013-08-20 11:07:00,
2013-08-20 06:27:00,68.3,65.9,29.88,SSE,148,2.1,2.1,92,0.00,CLR,SKC,0.00,WeatherDisplay:10.37,2013-08-20 11:27:00,
2013-08-20 06:33:00,68.3,65.9,29.88,SE,143,1.1,1.1,92,0.00,,SKC,0.00,WeatherDisplay:10.37,2013-08-20 11:33:00,
2013-08-20 06:38:00,68.3,65.9,29.88,SSE,150,2.3,2.3,92,0.00,,SKC,0.00,WeatherDisplay:10.37,2013-08-20 11:38:00,
2013-08-20 06:43:00,68.4,66.0,29.88,SE,134,2.3,2.3,92,0.00,,SKC,0.00,WeatherDisplay:10.37,2013-08-20 11:43:00,
2013-08-20 06:48:00,68.4,66.0,29.88,SE,137,1.2,0.0,92,0.00,,SKC,0.00,WeatherDisplay:10.37,2013-08-20 11:48:00,
2013-08-20 06:53:00,68.4,66.0,29.89,SE,128,3.5,3.5,92,0.00,,SKC,0.00,WeatherDisplay:10.37,2013-08-20 11:53:00,
2013-08-20 06:58:00,68.5,66.1,29.89,SE,144,3.5,3.5,92,0.00,,SKC,0.00,WeatherDisplay:10.37,2013-08-20 11:58:00,
2013-08-20 07:03:00,68.6,66.2,29.89,SSE,150,2.3,2.3,92,0.00,,SKC,0.00,WeatherDisplay:10.37,2013-08-20 12:03:00,
2013-08-20 07:08:00,68.7,66.0,29.89,SE,143,2.3,2.3,91,0.00,,SKC,0.00,WeatherDisplay:10.37,2013-08-20 12:08:00,
2013-08-20 07:13:00,68.7,66.0,29.89,ESE,122,2.3,2.3,91,0.00,,SKC,0.00,WeatherDisplay:10.37,2013-08-20 12:13:00,
2013-08-20 07:18:00,68.9,66.2,29.89,SE,144,2.3,2.3,91,0.00,,SKC,0.00,WeatherDisplay:10.37,2013-08-20 12:18:00,
2013-08-20 07:23:00,69.1,66.4,29.89,SSE,158,3.2,3.2,91,0.00,,SKC,0.00,WeatherDisplay:10.37,2013-08-20 12:23:00,
2013-08-20 07:28:00,69.4,66.3,29.90,SE,146,3.2,3.2,90,0.00,,SKC,0.00,WeatherDisplay:10.37,2013-08-20 12:28:00,
2013-08-20 07:33:00,69.6,66.5,29.90,SE,145,3.5,3.5,90,0.00,,SKC,0.00,WeatherDisplay:10.37,2013-08-20 12:33:00,
2013-08-20 07:38:00,69.9,66.8,29.90,SSE,167,4.6,4.6,90,0.00,,SKC,0.00,WeatherDisplay:10.37,2013-08-20 12:38:00,
2013-08-20 07:43:00,70.2,66.8,29.90,SSE,165,4.2,4.2,89,0.00,,SKC,0.00,WeatherDisplay:10.37,2013-08-20 12:43:00,
2013-08-20 07:48:00,70.6,67.2,29.90,SSE,148,1.2,1.2,89,0.00,,SKC,0.00,WeatherDisplay:10.37,2013-08-20 12:48:00,
2013-08-20 07:53:00,70.8,67.1,29.90,SSE,147,4.2,4.2,88,0.00,,SKC,0.00,WeatherDisplay:10.37,2013-08-20 12:53:00,
2013-08-20 07:58:00,71.0,67.3,29.90,SSE,155,4.6,4.6,88,0.00,,SKC,0.00,WeatherDisplay:10.37,2013-08-20 12:58:00,
2013-08-20 08:03:00,71.2,67.1,29.90,South,179,5.3,5.3,87,0.00,,SKC,0.00,WeatherDisplay:10.37,2013-08-20 13:03:00,
2013-08-20 08:09:00,71.4,67.3,29.90,SSE,153,3.5,3.5,87,0.00,,SKC,0.00,WeatherDisplay:10.37,2013-08-20 13:09:00,
2013-08-20 08:14:00,71.7,67.6,29.90,South,181,3.5,3.5,87,0.00,,SKC,0.00,WeatherDisplay:10.37,2013-08-20 13:14:00,
2013-08-20 08:19:00,72.0,67.9,29.90,SSE,159,5.8,5.8,87,0.00,,SKC,0.00,WeatherDisplay:10.37,2013-08-20 13:19:00,
2013-08-20 08:24:00,72.4,68.0,29.90,SSW,198,7.4,7.4,86,0.00,,SKC,0.00,WeatherDisplay:10.37,2013-08-20 13:24:00,
2013-08-20 08:29:00,73.0,68.2,29.90,SE,133,5.8,5.8,85,0.00,,SKC,0.00,WeatherDisplay:10.37,2013-08-20 13:29:00,
2013-08-20 08:34:00,73.6,68.5,29.90,SE,145,7.4,7.4,84,0.00,,SKC,0.00,WeatherDisplay:10.37,2013-08-20 13:34:00,
2013-08-20 08:39:00,73.9,68.4,29.90,SE,145,7.4,7.4,83,0.00,,SKC,0.00,WeatherDisplay:10.37,2013-08-20 13:39:00,
2013-08-20 08:44:00,74.5,69.0,29.90,SSW,198,3.5,3.5,83,0.00,,SKC,0.00,WeatherDisplay:10.37,2013-08-20 13:44:00,
2013-08-20 08:49:00,75.1,68.9,29.90,SW,215,4.6,4.6,81,0.00,,SKC,0.00,WeatherDisplay:10.37,2013-08-20 13:49:00,
2013-08-20 08:54:00,75.4,68.8,29.90,South,185,7.4,7.4,80,0.00,,SKC,0.00,WeatherDisplay:10.37,2013-08-20 13:54:00,
2013-08-20 08:59:00,75.8,68.4,29.90,SSW,198,9.5,9.5,78,0.00,,SKC,0.00,WeatherDisplay:10.37,2013-08-20 13:59:00,
2013-08-20 09:04:00,76.2,68.8,29.90,SE,145,6.9,6.9,78,0.00,,SKC,0.00,WeatherDisplay:10.37,2013-08-20 14:04:00,
2013-08-20 09:09:00,76.5,68.7,29.90,SSE,155,6.9,6.9,77,0.00,,SKC,0.00,WeatherDisplay:10.37,2013-08-20 14:09:00,
2013-08-20 09:14:00,76.9,68.8,29.90,SE,124,8.1,8.1,76,0.00,,SKC,0.00,WeatherDisplay:10.37,2013-08-20 14:14:00,
2013-08-20 09:19:00,77.4,68.9,29.90,SSW,205,5.8,5.8,75,0.00,,SKC,0.00,WeatherDisplay:10.37,2013-08-20 14:19:00,
2013-08-20 09:24:00,77.7,68.7,29.90,SSW,199,6.9,6.9,74,0.00,,SKC,0.00,WeatherDisplay:10.37,2013-08-20 14:24:00,
2013-08-20 09:29:00,78.1,68.7,29.90,SSW,203,8.5,8.5,73,0.00,,SKC,0.00,WeatherDisplay:10.37,2013-08-20 14:29:00,
2013-08-20 09:34:00,78.5,68.7,29.90,South,177,12.7,12.7,72,0.00,,SKC,0.00,WeatherDisplay:10.37,2013-08-20 14:34:00,
2013-08-20 09:39:00,78.8,69.0,29.90,SSW,206,6.4,6.4,72,0.00,,SKC,0.00,WeatherDisplay:10.37,2013-08-20 14:39:00,
2013-08-20 09:44:00,78.8,68.6,29.90,SSE,167,7.4,7.4,71,0.00,,SKC,0.00,WeatherDisplay:10.37,2013-08-20 14:44:00,
2013-08-20 09:49:00,79.2,69.0,29.90,SW,214,11.7,11.7,71,0.00,,SKC,0.00,WeatherDisplay:10.37,2013-08-20 14:49:00,
2013-08-20 09:54:00,79.3,68.7,29.90,SSE,163,10.6,10.6,70,0.00,,SKC,0.00,WeatherDisplay:10.37,2013-08-20 14:54:00,
2013-08-20 09:59:00,79.4,68.3,29.90,SW,225,13.8,13.8,69,0.00,,SKC,0.00,WeatherDisplay:10.37,2013-08-20 14:59:00,
2013-08-20 10:04:00,79.4,67.9,29.90,WSW,252,16.1,16.1,68,0.00,,SKC,0.00,WeatherDisplay:10.37,2013-08-20 15:04:00,
2013-08-20 10:09:00,79.7,69.0,29.90,WSW,243,13.8,13.8,70,0.00,,SKC,0.00,WeatherDisplay:10.37,2013-08-20 15:09:00,
2013-08-20 10:14:00,80.2,68.7,29.90,SSE,159,10.6,10.6,68,0.00,,SKC,0.00,WeatherDisplay:10.37,2013-08-20 15:14:00,
2013-08-20 10:19:00,80.3,67.9,29.90,SW,229,14.8,14.8,66,0.00,,SKC,0.00,WeatherDisplay:10.37,2013-08-20 15:19:00,
2013-08-20 10:24:00,80.2,67.8,29.90,South,172,15.0,15.0,66,0.00,,SKC,0.00,WeatherDisplay:10.37,2013-08-20 15:24:00,
2013-08-20 10:29:00,80.4,68.4,29.91,SSE,157,7.4,7.4,67,0.00,,SKC,0.00,WeatherDisplay:10.37,2013-08-20 15:29:00,
2013-08-20 10:34:00,80.7,67.8,29.91,South,174,15.9,15.9,65,0.00,,SKC,0.00,WeatherDisplay:10.37,2013-08-20 15:34:00,
2013-08-20 10:39:00,80.7,68.3,29.90,SW,221,16.1,16.1,66,0.00,,SKC,0.00,WeatherDisplay:10.37,2013-08-20 15:39:00,
2013-08-20 10:44:00,81.0,68.1,29.90,SSE,160,10.6,10.6,65,0.00,,SKC,0.00,WeatherDisplay:10.37,2013-08-20 15:44:00,
2013-08-20 10:49:00,81.3,68.4,29.90,SW,214,14.8,14.8,65,0.00,,SKC,0.00,WeatherDisplay:10.37,2013-08-20 15:49:00,
2013-08-20 10:54:00,81.4,68.5,29.90,SW,232,9.5,9.5,65,0.00,,SKC,0.00,WeatherDisplay:10.37,2013-08-20 15:54:00,
2013-08-20 10:59:00,81.9,69.4,29.90,West,263,5.3,5.3,66,0.00,,SKC,0.00,WeatherDisplay:10.37,2013-08-20 15:59:00,
2013-08-20 11:04:00,82.5,67.7,29.90,SW,226,16.1,16.1,61,0.00,,SKC,0.00,WeatherDisplay:10.37,2013-08-20 16:04:00,
2013-08-20 11:09:00,82.4,68.5,29.90,SW,226,15.0,15.0,63,0.00,,SKC,0.00,WeatherDisplay:10.37,2013-08-20 16:09:00,
2013-08-20 11:14:00,82.2,67.9,29.90,West,266,9.5,9.5,62,0.00,,SKC,0.00,WeatherDisplay:10.37,2013-08-20 16:14:00,
2013-08-20 11:19:00,82.2,67.4,29.90,South,189,10.6,10.6,61,0.00,,SKC,0.00,WeatherDisplay:10.37,2013-08-20 16:19:00,
2013-08-20 11:24:00,82.3,67.5,29.90,SW,219,17.3,17.3,61,0.00,,SKC,0.00,WeatherDisplay:10.37,2013-08-20 16:24:00,
2013-08-20 11:29:00,82.8,69.4,29.90,SE,141,10.6,10.6,64,0.00,,SKC,0.00,WeatherDisplay:10.37,2013-08-20 16:29:00,
2013-08-20 11:34:00,83.0,67.7,29.90,SSE,152,17.3,17.3,60,0.00,,SKC,0.00,WeatherDisplay:10.37,2013-08-20 16:34:00,
2013-08-20 11:39:00,83.2,67.9,29.90,SW,226,8.5,8.5,60,0.00,,SKC,0.00,WeatherDisplay:10.37,2013-08-20 16:39:00,
2013-08-20 11:44:00,83.6,68.2,29.90,SE,124,17.3,17.3,60,0.00,,SKC,0.00,WeatherDisplay:10.37,2013-08-20 16:44:00,
2013-08-20 11:49:00,84.1,68.7,29.90,WSW,239,10.6,10.6,60,0.00,,SKC,0.00,WeatherDisplay:10.37,2013-08-20 16:49:00,
2013-08-20 11:54:00,84.0,68.6,29.90,SE,135,9.5,9.5,60,0.00,,SKC,0.00,WeatherDisplay:10.37,2013-08-20 16:54:00,
2013-08-20 11:59:00,84.7,68.3,29.89,South,186,12.7,12.7,58,0.00,,SKC,0.00,WeatherDisplay:10.37,2013-08-20 16:59:00,
2013-08-20 12:04:00,84.5,68.1,29.89,SSW,203,11.7,11.7,58,0.00,,SKC,0.00,WeatherDisplay:10.37,2013-08-20 17:04:00,
2013-08-20 12:09:00,84.4,68.5,29.89,ESE,119,7.4,7.4,59,0.00,,SKC,0.00,WeatherDisplay:10.37,2013-08-20 17:09:00,
2013-08-20 12:14:00,84.8,68.9,29.89,SSE,157,11.5,11.5,59,0.00,,SKC,0.00,WeatherDisplay:10.37,2013-08-20 17:14:00,
2013-08-20 12:19:00,85.0,68.6,29.89,SW,216,13.8,13.8,58,0.00,,SKC,0.00,WeatherDisplay:10.37,2013-08-20 17:19:00,
2013-08-20 12:24:00,84.9,68.5,29.89,SSW,203,13.8,13.8,58,0.00,,SKC,0.00,WeatherDisplay:10.37,2013-08-20 17:24:00,
2013-08-20 12:29:00,85.0,68.1,29.88,SSW,211,18.0,18.0,57,0.00,,SKC,0.00,WeatherDisplay:10.37,2013-08-20 17:29:00,
2013-08-20 12:34:00,84.9,68.5,29.88,SW,221,11.7,11.7,58,0.00,,SKC,0.00,WeatherDisplay:10.37,2013-08-20 17:34:00,
2013-08-20 12:39:00,85.0,68.1,29.88,SW,236,19.6,19.6,57,0.00,,SKC,0.00,WeatherDisplay:10.37,2013-08-20 17:39:00,
2013-08-20 12:44:00,85.5,68.5,29.88,SW,226,10.6,10.6,57,0.00,,SKC,0.00,WeatherDisplay:10.37,2013-08-20 17:44:00,
2013-08-20 12:49:00,85.5,68.0,29.88,SSW,209,18.4,18.4,56,0.00,,SKC,0.00,WeatherDisplay:10.37,2013-08-20 17:49:00,
2013-08-20 12:54:00,85.5,68.5,29.88,SSW,193,13.8,13.8,57,0.00,,SKC,0.00,WeatherDisplay:10.37,2013-08-20 17:54:00,
2013-08-20 12:59:00,85.8,67.8,29.88,WSW,258,15.0,15.0,55,0.00,,SKC,0.00,WeatherDisplay:10.37,2013-08-20 17:59:00,
2013-08-20 13:04:00,85.7,68.2,29.88,SW,227,9.2,9.2,56,0.00,,SKC,0.00,WeatherDisplay:10.37,2013-08-20 18:04:00,
2013-08-20 13:09:00,86.2,68.7,29.88,SSW,193,14.8,14.8,56,0.00,,SKC,0.00,WeatherDisplay:10.37,2013-08-20 18:09:00,
2013-08-20 13:14:00,86.4,68.8,29.88,WSW,240,11.5,11.5,56,0.00,,SKC,0.00,WeatherDisplay:10.37,2013-08-20 18:14:00,
2013-08-20 13:19:00,86.6,68.5,29.87,SSW,211,16.1,16.1,55,0.00,,SKC,0.00,WeatherDisplay:10.37,2013-08-20 18:19:00,
2013-08-20 13:24:00,86.5,68.9,29.87,WSW,240,12.7,12.7,56,0.00,,SKC,0.00,WeatherDisplay:10.37,2013-08-20 18:24:00,
2013-08-20 13:29:00,86.6,69.0,29.87,SSW,202,7.0,16.0,56,0.00,,SKC,0.00,WeatherDisplay:10.37,2013-08-20 18:29:00,
2013-08-20 13:34:00,86.9,69.3,29.87,SSW,197,17.0,17.0,56,0.00,,SKC,0.00,WeatherDisplay:10.37,2013-08-20 18:34:00,
2013-08-20 13:39:00,87.1,69.0,29.87,SE,131,11.7,11.7,55,0.00,,SKC,0.00,WeatherDisplay:10.37,2013-08-20 18:39:00,
2013-08-20 13:45:00,87.0,69.4,29.87,SSW,198,7.4,7.4,56,0.00,,SKC,0.00,WeatherDisplay:10.37,2013-08-20 18:45:00,
2013-08-20 13:50:00,87.0,68.9,29.86,WSW,240,11.7,11.7,55,0.00,,SKC,0.00,WeatherDisplay:10.37,2013-08-20 18:50:00,
2013-08-20 13:55:00,87.3,68.6,29.86,SW,218,13.8,13.8,54,0.00,,SKC,0.00,WeatherDisplay:10.37,2013-08-20 18:55:00,
2013-08-20 14:00:00,87.5,69.9,29.86,SW,219,5.3,5.3,56,0.00,,SKC,0.00,WeatherDisplay:10.37,2013-08-20 19:00:00,
2013-08-20 14:05:00,87.5,68.8,29.86,SW,225,11.7,11.7,54,0.00,,SKC,0.00,WeatherDisplay:10.37,2013-08-20 19:05:00,
2013-08-20 14:10:00,87.8,70.1,29.86,South,174,9.5,9.5,56,0.00,,SKC,0.00,WeatherDisplay:10.37,2013-08-20 19:10:00,
2013-08-20 14:15:00,88.1,69.9,29.86,SSW,210,7.4,7.4,55,0.00,,SKC,0.00,WeatherDisplay:10.37,2013-08-20 19:15:00,
2013-08-20 14:20:00,88.5,69.2,29.86,SW,215,11.7,11.7,53,0.00,,SKC,0.00,WeatherDisplay:10.37,2013-08-20 19:20:00,
2013-08-20 14:25:00,88.6,69.3,29.86,SSW,199,9.5,9.5,53,0.00,,SKC,0.00,WeatherDisplay:10.37,2013-08-20 19:25:00,
2013-08-20 14:30:00,88.4,70.2,29.86,SSW,205,8.5,8.5,55,0.00,,SKC,0.00,WeatherDisplay:10.37,2013-08-20 19:30:00,
2013-08-20 14:35:00,88.4,70.2,29.86,South,186,10.4,10.4,55,0.00,,SKC,0.00,WeatherDisplay:10.37,2013-08-20 19:35:00,
2013-08-20 14:40:00,88.6,69.8,29.86,South,173,10.6,10.6,54,0.00,,SKC,0.00,WeatherDisplay:10.37,2013-08-20 19:40:00,
2013-08-20 14:45:00,88.6,70.4,29.86,SW,221,13.8,13.8,55,0.00,,SKC,0.00,WeatherDisplay:10.37,2013-08-20 19:45:00,
2013-08-20 14:50:00,88.5,69.2,29.85,WSW,245,6.9,6.9,53,0.00,,SKC,0.00,WeatherDisplay:10.37,2013-08-20 19:50:00,
2013-08-20 14:55:00,88.7,70.5,29.85,South,184,12.7,12.7,55,0.00,,SKC,0.00,WeatherDisplay:10.37,2013-08-20 19:55:00,
2013-08-20 15:00:00,89.0,70.2,29.85,SSW,205,13.8,13.8,54,0.00,,SKC,0.00,WeatherDisplay:10.37,2013-08-20 20:00:00,
2013-08-20 15:05:00,88.8,70.0,29.85,South,188,9.5,9.5,54,0.00,,SKC,0.00,WeatherDisplay:10.37,2013-08-20 20:05:00,
2013-08-20 15:10:00,88.8,70.0,29.85,SE,141,10.6,10.6,54,0.00,,SKC,0.00,WeatherDisplay:10.37,2013-08-20 20:10:00,
2013-08-20 15:15:00,89.0,70.2,29.85,SW,228,11.7,11.7,54,0.00,,SKC,0.00,WeatherDisplay:10.37,2013-08-20 20:15:00,
2013-08-20 15:20:00,88.9,70.1,29.85,SE,131,12.7,12.7,54,0.00,,SKC,0.00,WeatherDisplay:10.37,2013-08-20 20:20:00,
2013-08-20 15:25:00,89.0,70.2,29.84,SSW,211,10.6,10.6,54,0.00,,SKC,0.00,WeatherDisplay:10.37,2013-08-20 20:25:00,
2013-08-20 15:30:00,89.4,71.1,29.84,SE,145,6.9,6.9,55,0.00,,SKC,0.00,WeatherDisplay:10.37,2013-08-20 20:30:00,
2013-08-20 15:35:00,89.6,71.3,29.84,SSW,200,7.4,7.4,55,0.00,,SKC,0.00,WeatherDisplay:10.37,2013-08-20 20:35:00,
2013-08-20 15:40:00,89.2,70.4,29.84,SSW,199,11.5,11.5,54,0.00,,SKC,0.00,WeatherDisplay:10.37,2013-08-20 20:40:00,
2013-08-20 15:45:00,89.1,69.7,29.84,SSE,147,15.0,15.0,53,0.00,,SKC,0.00,WeatherDisplay:10.37,2013-08-20 20:45:00,
2013-08-20 15:50:00,89.2,70.9,29.84,SSW,205,9.5,9.5,55,0.00,,SKC,0.00,WeatherDisplay:10.37,2013-08-20 20:50:00,
2013-08-20 15:55:00,89.1,69.7,29.84,SW,224,16.1,16.1,53,0.00,,SKC,0.00,WeatherDisplay:10.37,2013-08-20 20:55:00,
2013-08-20 16:00:00,89.3,69.9,29.84,South,170,7.4,7.4,53,0.00,,SKC,0.00,WeatherDisplay:10.37,2013-08-20 21:00:00,
2013-08-20 16:05:00,89.1,69.2,29.84,SSW,206,13.8,13.8,52,0.00,,SKC,0.00,WeatherDisplay:10.37,2013-08-20 21:05:00,
2013-08-20 16:10:00,89.2,69.3,29.83,SSE,162,13.8,13.8,52,0.00,,SKC,0.00,WeatherDisplay:10.37,2013-08-20 21:10:00,
2013-08-20 16:15:00,89.2,69.3,29.83,SE,146,15.9,15.9,52,0.00,,SKC,0.00,WeatherDisplay:10.37,2013-08-20 21:15:00,
2013-08-20 16:20:00,89.1,69.2,29.83,SSW,203,13.8,13.8,52,0.00,,SKC,0.00,WeatherDisplay:10.37,2013-08-20 21:20:00,
2013-08-20 16:25:00,89.3,69.9,29.83,SSE,159,9.5,9.5,53,0.00,,SKC,0.00,WeatherDisplay:10.37,2013-08-20 21:25:00,
2013-08-20 16:30:00,89.3,69.9,29.83,South,174,11.7,11.7,53,0.00,,SKC,0.00,WeatherDisplay:10.37,2013-08-20 21:30:00,
2013-08-20 16:35:00,89.3,69.4,29.83,SSW,210,16.1,16.1,52,0.00,,SKC,0.00,WeatherDisplay:10.37,2013-08-20 21:35:00,
2013-08-20 16:40:00,89.2,69.3,29.83,West,277,10.4,10.4,52,0.00,,SKC,0.00,WeatherDisplay:10.37,2013-08-20 21:40:00,
2013-08-20 16:45:00,89.3,68.8,29.83,WSW,243,10.6,10.6,51,0.00,,SKC,0.00,WeatherDisplay:10.37,2013-08-20 21:45:00,
2013-08-20 16:50:00,89.5,69.5,29.83,SSW,198,8.5,8.5,52,0.00,,SKC,0.00,WeatherDisplay:10.37,2013-08-20 21:50:00,
2013-08-20 16:55:00,89.4,69.5,29.83,SSE,156,10.4,10.4,52,0.00,,SKC,0.00,WeatherDisplay:10.37,2013-08-20 21:55:00,
2013-08-20 17:00:00,89.3,69.4,29.83,SSW,203,16.1,16.1,52,0.00,,SKC,0.00,WeatherDisplay:10.37,2013-08-20 22:00:00,
2013-08-20 17:05:00,89.3,69.4,29.83,SSW,200,11.5,11.5,52,0.00,,SKC,0.00,WeatherDisplay:10.37,2013-08-20 22:05:00,
2013-08-20 17:10:00,89.3,69.4,29.83,South,179,16.1,16.1,52,0.00,,SKC,0.00,WeatherDisplay:10.37,2013-08-20 22:10:00,
2013-08-20 17:15:00,89.4,69.5,29.83,SSW,213,8.5,8.5,52,0.00,,SKC,0.00,WeatherDisplay:10.37,2013-08-20 22:15:00,
2013-08-20 17:20:00,89.2,68.1,29.83,South,187,12.7,12.7,50,0.00,,SKC,0.00,WeatherDisplay:10.37,2013-08-20 22:20:00,
2013-08-20 17:25:00,89.3,69.4,29.83,SSW,205,11.5,11.5,52,0.00,,SKC,0.00,WeatherDisplay:10.37,2013-08-20 22:25:00,
2013-08-20 17:30:00,89.4,69.5,29.83,South,182,10.6,10.6,52,0.00,,SKC,0.00,WeatherDisplay:10.37,2013-08-20 22:30:00,
2013-08-20 17:35:00,89.4,70.0,29.83,SSE,159,6.9,6.9,53,0.00,,SKC,0.00,WeatherDisplay:10.37,2013-08-20 22:35:00,
2013-08-20 17:40:00,89.3,69.9,29.83,SSW,203,10.6,10.6,53,0.00,,SKC,0.00,WeatherDisplay:10.37,2013-08-20 22:40:00,
2013-08-20 17:45:00,89.2,69.8,29.83,SSE,166,11.5,11.5,53,0.00,,SKC,0.00,WeatherDisplay:10.37,2013-08-20 22:45:00,
2013-08-20 17:50:00,89.1,69.7,29.83,SSW,196,10.4,10.4,53,0.00,,SKC,0.00,WeatherDisplay:10.37,2013-08-20 22:50:00,
2013-08-20 17:55:00,89.2,70.9,29.83,SSE,155,7.4,7.4,55,0.00,,SKC,0.00,WeatherDisplay:10.37,2013-08-20 22:55:00,
2013-08-20 18:00:00,89.1,69.7,29.83,South,187,9.2,9.2,53,0.00,,SKC,0.00,WeatherDisplay:10.37,2013-08-20 23:00:00,
2013-08-20 18:05:00,88.9,70.1,29.83,SSW,208,8.1,8.1,54,0.00,,SKC,0.00,WeatherDisplay:10.37,2013-08-20 23:05:00,
2013-08-20 18:10:00,88.6,69.8,29.83,SSW,195,10.4,10.4,54,0.00,,SKC,0.00,WeatherDisplay:10.37,2013-08-20 23:10:00,
2013-08-20 18:15:00,88.6,70.4,29.83,SSE,168,8.5,8.5,55,0.00,,SKC,0.00,WeatherDisplay:10.37,2013-08-20 23:15:00,
2013-08-20 18:20:00,88.4,69.6,29.83,SW,217,8.5,8.5,54,0.00,,SKC,0.00,WeatherDisplay:10.37,2013-08-20 23:20:00,
2013-08-20 18:25:00,88.4,69.1,29.83,SSW,207,8.5,8.5,53,0.00,,SKC,0.00,WeatherDisplay:10.37,2013-08-20 23:25:00,
2013-08-20 18:30:00,88.3,69.5,29.83,WSW,249,6.9,6.9,54,0.00,,SKC,0.00,WeatherDisplay:10.37,2013-08-20 23:30:00,
2013-08-20 18:35:00,88.0,69.8,29.83,South,186,7.4,7.4,55,0.00,,SKC,0.00,WeatherDisplay:10.37,2013-08-20 23:35:00,
2013-08-20 18:40:00,87.8,69.6,29.83,SSE,151,8.1,8.1,55,0.00,,SKC,0.00,WeatherDisplay:10.37,2013-08-20 23:40:00,
2013-08-20 18:45:00,87.7,69.5,29.83,SSE,150,7.4,7.4,55,0.00,,SKC,0.00,WeatherDisplay:10.37,2013-08-20 23:45:00,
2013-08-20 18:51:00,87.5,69.9,29.83,SSW,203,5.8,5.8,56,0.00,,SKC,0.00,WeatherDisplay:10.37,2013-08-20 23:51:00,
2013-08-20 18:56:00,87.4,70.3,29.83,SSW,199,5.3,5.3,57,0.00,,SKC,0.00,WeatherDisplay:10.37,2013-08-20 23:56:00,
2013-08-20 19:01:00,87.1,70.5,29.83,SSE,163,5.8,5.8,58,0.00,,SKC,0.00,WeatherDisplay:10.37,2013-08-21 00:01:00,
2013-08-20 19:06:00,86.5,71.0,29.83,SE,130,6.9,6.9,60,0.00,,SKC,0.00,WeatherDisplay:10.37,2013-08-21 00:06:00,
2013-08-20 19:11:00,85.7,71.7,29.83,SE,125,3.5,3.5,63,0.00,,SKC,0.00,WeatherDisplay:10.37,2013-08-21 00:11:00,
2013-08-20 19:16:00,85.0,71.9,29.83,SE,134,2.3,2.3,65,0.00,,SKC,0.00,WeatherDisplay:10.37,2013-08-21 00:16:00,
2013-08-20 19:21:00,84.4,71.8,29.83,South,191,2.1,2.1,66,0.00,,SKC,0.00,WeatherDisplay:10.37,2013-08-21 00:21:00,
2013-08-20 19:26:00,83.8,71.7,29.83,SE,129,2.3,2.3,67,0.00,,SKC,0.00,WeatherDisplay:10.37,2013-08-21 00:26:00,
2013-08-20 19:31:00,83.4,71.3,29.83,SSE,158,3.2,3.2,67,0.00,,SKC,0.00,WeatherDisplay:10.37,2013-08-21 00:31:00,
2013-08-20 19:36:00,82.7,71.1,29.83,SE,135,3.5,3.5,68,0.00,,SKC,0.00,WeatherDisplay:10.37,2013-08-21 00:36:00,
2013-08-20 19:41:00,82.1,70.9,29.83,SE,144,3.5,3.5,69,0.00,,SKC,0.00,WeatherDisplay:10.37,2013-08-21 00:41:00,
2013-08-20 19:46:00,81.7,71.0,29.83,SE,143,2.3,2.3,70,0.00,,SKC,0.00,WeatherDisplay:10.37,2013-08-21 00:46:00,
2013-08-20 19:51:00,81.3,71.0,29.83,SE,137,2.3,2.3,71,0.00,,SKC,0.00,WeatherDisplay:10.37,2013-08-21 00:51:00,
2013-08-20 19:56:00,80.7,70.4,29.83,SSE,158,1.2,1.2,71,0.00,,SKC,0.00,WeatherDisplay:10.37,2013-08-21 00:56:00,
2013-08-20 20:01:00,80.3,70.4,29.83,SE,127,2.3,2.3,72,0.00,,SKC,0.00,WeatherDisplay:10.37,2013-08-21 01:01:00,
2013-08-20 20:06:00,79.9,70.5,29.83,SE,136,2.3,2.3,73,0.00,,SKC,0.00,WeatherDisplay:10.37,2013-08-21 01:06:00,
2013-08-20 20:11:00,79.5,70.5,29.83,SSW,192,1.2,0.0,74,0.00,,SKC,0.00,WeatherDisplay:10.37,2013-08-21 01:11:00,
2013-08-20 20:16:00,79.1,70.5,29.83,SE,141,3.2,3.2,75,0.00,,SKC,0.00,WeatherDisplay:10.37,2013-08-21 01:16:00,
2013-08-20 20:19:00,78.9,70.7,29.83,SE,138,2.3,2.3,76,0.00,,SKC,0.00,WeatherDisplay:10.37,2013-08-21 01:19:00,
2013-08-20 20:24:00,78.6,70.8,29.83,SE,138,2.3,2.3,77,0.00,,SKC,0.00,WeatherDisplay:10.37,2013-08-21 01:24:00,
2013-08-20 20:29:00,78.5,70.7,29.83,SE,136,1.0,3.0,77,0.00,,SKC,0.00,WeatherDisplay:10.37,2013-08-21 01:29:00,
2013-08-20 20:34:00,78.5,70.7,29.84,SE,140,2.3,2.3,77,0.00,,SKC,0.00,WeatherDisplay:10.37,2013-08-21 01:34:00,
2013-08-20 20:39:00,78.5,70.7,29.84,SSE,155,2.3,2.3,77,0.00,,SKC,0.00,WeatherDisplay:10.37,2013-08-21 01:39:00,
2013-08-20 20:44:00,78.5,70.7,29.84,South,189,2.3,2.3,77,0.00,,SKC,0.00,WeatherDisplay:10.37,2013-08-21 01:44:00,
2013-08-20 20:50:00,78.2,70.4,29.84,SSE,150,3.2,3.2,77,0.00,,SKC,0.00,WeatherDisplay:10.37,2013-08-21 01:50:00,
2013-08-20 20:55:00,78.1,70.7,29.84,SE,126,3.5,3.5,78,0.00,,SKC,0.00,WeatherDisplay:10.37,2013-08-21 01:55:00,
2013-08-20 21:00:00,77.9,70.5,29.84,SE,128,5.8,5.8,78,0.00,,SKC,0.00,WeatherDisplay:10.37,2013-08-21 02:00:00,
2013-08-20 21:05:00,77.6,70.6,29.84,South,169,3.5,3.5,79,0.00,,SKC,0.00,WeatherDisplay:10.37,2013-08-21 02:05:00,
2013-08-20 21:10:00,77.3,70.6,29.85,SSE,161,2.3,2.3,80,0.00,,SKC,0.00,WeatherDisplay:10.37,2013-08-21 02:10:00,
2013-08-20 21:15:00,77.1,70.5,29.85,SE,146,2.3,2.3,80,0.00,,SKC,0.00,WeatherDisplay:10.37,2013-08-21 02:15:00,
2013-08-20 21:20:00,76.8,70.5,29.85,SE,134,2.3,2.3,81,0.00,,SKC,0.00,WeatherDisplay:10.37,2013-08-21 02:20:00,
2013-08-20 21:25:00,76.5,70.2,29.85,SE,137,2.3,2.3,81,0.00,,SKC,0.00,WeatherDisplay:10.37,2013-08-21 02:25:00,
2013-08-20 21:30:00,76.5,70.6,29.85,SE,133,3.5,3.5,82,0.00,,SKC,0.00,WeatherDisplay:10.37,2013-08-21 02:30:00,
2013-08-20 21:35:00,76.4,70.5,29.85,SSE,153,3.5,3.5,82,0.00,,SKC,0.00,WeatherDisplay:10.37,2013-08-21 02:35:00,
2013-08-20 21:40:00,76.2,70.3,29.85,SE,130,4.6,4.6,82,0.00,,SKC,0.00,WeatherDisplay:10.37,2013-08-21 02:40:00,
2013-08-20 21:45:00,76.1,70.2,29.86,ESE,102,1.2,1.2,82,0.00,,SKC,0.00,WeatherDisplay:10.37,2013-08-21 02:45:00,
2013-08-20 21:50:00,76.0,70.1,29.86,SSE,160,4.6,4.6,82,0.00,,SKC,0.00,WeatherDisplay:10.37,2013-08-21 02:50:00,
2013-08-20 21:55:00,75.7,70.2,29.86,SE,132,2.3,2.3,83,0.00,,SKC,0.00,WeatherDisplay:10.37,2013-08-21 02:55:00,
2013-08-20 22:00:00,75.5,70.0,29.86,SSW,203,3.2,3.2,83,0.00,,SKC,0.00,WeatherDisplay:10.37,2013-08-21 03:00:00,
2013-08-20 22:05:00,75.2,69.7,29.86,ESE,117,2.1,2.1,83,0.00,,SKC,0.00,WeatherDisplay:10.37,2013-08-21 03:05:00,
2013-08-20 22:10:00,75.1,69.6,29.86,SSE,150,0.0,0.0,83,0.00,,SKC,0.00,WeatherDisplay:10.37,2013-08-21 03:10:00,
2013-08-20 22:15:00,74.9,69.7,29.86,SSE,147,1.2,1.2,84,0.00,,SKC,0.00,WeatherDisplay:10.37,2013-08-21 03:15:00,
2013-08-20 22:20:00,74.8,69.6,29.86,SSE,155,2.3,2.3,84,0.00,,SKC,0.00,WeatherDisplay:10.37,2013-08-21 03:20:00,
2013-08-20 22:25:00,74.8,69.6,29.87,SE,131,1.2,1.2,84,0.00,,SKC,0.00,WeatherDisplay:10.37,2013-08-21 03:25:00,
2013-08-20 22:30:00,74.7,69.5,29.87,SE,124,2.3,2.3,84,0.00,,SKC,0.00,WeatherDisplay:10.37,2013-08-21 03:30:00,
2013-08-20 22:35:00,74.6,69.4,29.87,SSE,150,3.5,3.5,84,0.00,,SKC,0.00,WeatherDisplay:10.37,2013-08-21 03:35:00,
2013-08-20 22:40:00,74.5,69.3,29.87,SE,139,3.5,3.5,84,0.00,,SKC,0.00,WeatherDisplay:10.37,2013-08-21 03:40:00,
2013-08-20 22:45:00,74.4,69.2,29.87,SSE,155,4.6,4.6,84,0.00,,SKC,0.00,WeatherDisplay:10.37,2013-08-21 03:45:00,
2013-08-20 22:50:00,74.2,69.1,29.87,SE,127,3.5,3.5,84,0.00,,SKC,0.00,WeatherDisplay:10.37,2013-08-21 03:50:00,
2013-08-20 22:55:00,73.9,69.1,29.87,SE,141,2.3,2.3,85,0.00,,SKC,0.00,WeatherDisplay:10.37,2013-08-21 03:55:00,
2013-08-20 23:00:00,73.7,68.9,29.87,ESE,118,2.3,2.3,85,0.00,,SKC,0.00,WeatherDisplay:10.37,2013-08-21 04:00:00,
2013-08-20 23:01:00,73.6,68.8,29.87,SE,139,2.1,2.1,85,0.00,,SKC,0.00,WeatherDisplay:10.37,2013-08-21 04:01:00,
2013-08-20 23:06:00,73.6,69.2,29.87,SSE,161,2.3,2.3,86,0.00,,SKC,0.00,WeatherDisplay:10.37,2013-08-21 04:06:00,
2013-08-20 23:11:00,73.5,69.1,29.87,SSE,148,3.5,3.5,86,0.00,,SKC,0.00,WeatherDisplay:10.37,2013-08-21 04:11:00,
2013-08-20 23:16:00,73.4,69.0,29.87,ESE,118,1.2,0.0,86,0.00,,SKC,0.00,WeatherDisplay:10.37,2013-08-21 04:16:00,
2013-08-20 23:21:00,73.5,69.1,29.87,SE,144,2.3,2.3,86,0.00,,SKC,0.00,WeatherDisplay:10.37,2013-08-21 04:21:00,
2013-08-20 23:26:00,73.4,69.0,29.87,SE,130,3.2,3.2,86,0.00,,SKC,0.00,WeatherDisplay:10.37,2013-08-21 04:26:00,
2013-08-20 23:31:00,73.4,69.0,29.87,SE,130,4.2,4.2,86,0.00,,SKC,0.00,WeatherDisplay:10.37,2013-08-21 04:31:00,
2013-08-20 23:36:00,73.3,69.2,29.87,SSE,148,1.2,1.2,87,0.00,,SKC,0.00,WeatherDisplay:10.37,2013-08-21 04:36:00,
2013-08-20 23:41:00,73.1,69.0,29.87,SE,132,2.3,2.3,87,0.00,,SKC,0.00,WeatherDisplay:10.37,2013-08-21 04:41:00,
2013-08-20 23:46:00,73.1,69.0,29.87,SSE,157,0.0,0.0,87,0.00,,SKC,0.00,WeatherDisplay:10.37,2013-08-21 04:46:00,
2013-08-20 23:51:00,73.0,68.9,29.87,SE,138,2.3,2.3,87,0.00,,SKC,0.00,WeatherDisplay:10.37,2013-08-21 04:51:00,
2013-08-20 23:56:00,73.0,68.9,29.87,South,177,2.3,2.3,87,0.00,,SKC,0.00,WeatherDisplay:10.37,2013-08-21 04:56:00,